Location: Claye
(48.9449°N, 2.6857°E)
Time: 22:33:02
(UTC+00:00)

Daily predictions for brighter satellites

Satellite Brightness Start Highest point End
(mag) Time Altitude Azimuth Time Altitude Azimuth Time Altitude Azimuth
Cosmos 1844 Rocket 3.5 17:04:56 10° NNW 17:09:51 30° NE 17:14:43 10° ESE
NOSS 3-1 (A) 4.4 17:06:57 10° SSE 17:10:56 22° ESE 17:15:21 10° ENE
CZ-2D R/B 3.6 17:07:38 10° SE 17:11:18 45° ENE 17:15:02 10° N
AQUARIUS 4.1 17:07:12 10° SSE 17:11:41 81° ENE 17:16:12 10° NNW
H-2A R/B 2.4 17:06:44 10° SE 17:11:55 48° ENE 17:17:09 10° N
X-37B 2.2 17:09:33 10° W 17:12:50 36° SSW 17:16:08 10° SE
Cosmos 371 Rocket 3.8 17:08:34 10° S 17:13:06 40° ESE 17:17:40 10° NE
Cosmos 1908 3.2 17:12:07 10° S 17:15:59 89° E 17:19:51 10° N
Cosmos 1125 Rocket 4.3 17:11:02 10° SW 17:16:11 55° WNW 17:21:20 10° NNE
Cosmos 1328 4.0 17:12:31 10° N 17:16:27 49° ENE 17:20:23 10° SSE
CENTAUR R/B 4.2 17:12:12 10° NW 17:18:06 27° N 17:24:48 10° ENE
USA 267 3.4 17:14:45 10° ESE 17:21:18 88° SSW 17:27:54 10° NW
Cosmos 1269 Rocket 4.3 17:17:32 10° NNW 17:22:51 79° WSW 17:28:07 10° SSE
Tiangong 3.1 17:22:09 10° SW 17:24:40 21° S 17:27:12 10° SE
SKYMED 2 4.3 17:21:50 10° NNE 17:25:45 32° E 17:29:39 10° SSE
BREEZE-M R/B 2.5 17:24:52 10° W 17:28:45 86° S 17:32:43 10° E
Cosmos 1455 Rocket 3.0 17:24:46 10° S 17:29:11 75° E 17:33:39 10° NNE
H-2A R/B 4.0 17:30:43 10° E 17:30:43 10° E 17:30:58 10° ESE
NOSS 2-3 (D) 4.0 17:26:43 10° S 17:30:30 39° ESE 17:34:49 10° NE
Landsat 5 4.3 17:26:30 10° NNE 17:30:32 33° E 17:34:36 10° SSE
YAOGAN 1 3.7 17:27:31 10° ESE 17:30:58 23° ENE 17:34:25 10° N
Cosmos 1953 2.7 17:27:27 10° SSW 17:31:31 72° WNW 17:35:35 10° N
Cosmos 2278 4.1 17:27:56 10° SW 17:33:35 68° WNW 17:39:18 10° NNE
NOSS 3-1 (C) 3.4 17:28:59 10° SSW 17:34:06 54° ESE 17:40:08 10° NE
ATLAS 5 CENTAUR R/B 2.3 17:30:54 10° WSW 17:34:44 48° NW 17:39:08 10° NE
Cosmos 2278 Rocket 4.0 17:33:03 10° N 17:35:55 14° NNE 17:38:37 10° ENE
Cosmos 44 4.4 17:31:51 10° S 17:36:28 29° ESE 17:40:55 11° ENE
Lacrosse 4 Rocket 1.4 17:32:31 10° NNW 17:36:50 70° NE 17:41:13 10° SE
Cosmos 1825 3.8 17:39:11 10° NNE 17:41:24 15° ENE 17:41:34 15° ENE
Cosmos 1300 2.7 17:38:53 10° S 17:42:37 59° E 17:46:22 10° NNE
NOSS 2-3 (C) 3.7 17:39:01 10° SSW 17:42:57 53° SE 17:47:33 10° NE
Cosmos 2251 Rocket 3.7 17:38:10 10° NNW 17:43:17 49° ENE 17:48:22 10° SE
Cosmos 1544 Rocket 3.6 17:39:22 10° S 17:43:46 62° E 17:48:12 10° NNE
SL-16 R/B 2.2 17:39:37 10° SSW 17:45:12 63° ESE 17:50:50 10° NNE
SL-19 R/B 4.2 17:46:23 10° NNE 17:52:05 76° ESE 17:57:39 10° SSW
Cosmos 2322 Rocket 2.2 17:51:12 10° S 17:56:41 59° ESE 18:02:13 10° NE
Cosmos 1934 Rocket 3.9 17:51:41 10° S 17:57:46 84° E 18:03:51 10° N
CZ-4C R/B 3.1 17:55:33 10° NNE 17:58:46 43° E 18:01:52 10° S
deb Chang Zheng 4 4.1 17:55:30 10° S 17:59:40 62° WSW 18:03:53 10° NNW
Iridium 4 Rocket 3.4 17:56:19 10° N 18:01:01 88° W 18:06:10 10° S
Cosmos 2219 Rocket 3.6 17:58:47 10° SE 18:01:22 17° ESE 18:01:22 17° ESE
Cosmos 614 Rocket 3.8 17:57:36 10° NNW 18:02:42 72° ENE 18:07:47 10° SSE
Okean O Rocket 1.6 17:58:27 10° SSE 18:02:48 86° WSW 18:07:13 10° NNW
Cosmos 304 Rocket 3.7 17:58:13 10° S 18:02:57 65° ESE 18:07:44 10° NNE
Cosmos 1844 3.8 17:59:55 10° NNW 18:05:40 59° ENE 18:11:18 10° SE
Cosmos 2360 Rocket 2.5 18:00:23 10° S 18:05:40 43° ESE 18:11:01 10° NE
Meteor 1-4 Rocket 2.3 18:03:28 10° S 18:06:53 61° E 18:10:18 10° NNE
CZ-4 R/B 1.6 18:03:02 10° SE 18:06:55 47° ENE 18:10:55 10° N
Cosmos 1602 Rocket 3.4 18:03:13 10° N 18:07:34 71° ENE 18:11:53 10° SSE
Cosmos 1932 4.4 18:01:40 10° NW 18:07:56 74° NE 18:13:52 12° SE
ARGOS 3.1 18:04:15 10° SSE 18:09:38 86° ENE 18:15:07 10° NNW
COSMO-SKYMED 1 2.6 18:09:37 10° NNE 18:13:59 86° WNW 18:18:20 10° SSW
Cosmos 2333 Rocket 3.0 18:11:38 10° SSE 18:16:20 27° ESE 18:17:12 26° E
CZ-4B R/B 4.1 18:15:37 10° S 18:21:08 54° W 18:26:43 10° NNW
In-Cosmos 22 Rocket 4.0 18:17:27 10° N 18:22:48 82° ENE 18:28:07 10° SSE
SL-8 R/B 3.6 18:18:35 10° W 18:23:24 86° S 18:25:25 35° E
Cosmos 1190 Rocket 4.4 18:19:50 10° NNW 18:24:45 39° ENE 18:26:12 33° E
Spot 2 4.0 18:20:34 10° SSE 18:24:47 88° WSW 18:29:16 10° NNW
IRS-1C Rocket 4.1 18:20:00 10° SE 18:25:07 56° ENE 18:30:17 10° N
Cosmos 332 Rocket 3.9 18:22:27 10° SSW 18:27:21 79° WNW 18:32:15 10° NNE
Feng Yun 1-1 Rocket 4.3 18:22:02 10° SSE 18:27:39 87° WSW 18:33:29 10° NNW
Okean-O 2.9 18:26:34 34° ESE 18:27:59 46° ENE 18:32:13 10° N
Cosmos 1943 Rocket 4.3 18:26:55 10° NNE 18:28:04 11° NNE 18:29:08 10° NE
CZ-2C R/B 2.8 18:22:40 10° NNE 18:28:18 83° WNW 18:33:47 10° SSW
USA 215 3.5 18:24:03 18° NE 18:29:06 65° NNW 18:35:34 10° WSW
Cosmos 1825 Rocket 3.6 18:25:36 10° N 18:29:51 51° ENE 18:31:17 35° SE
Cosmos 1980 Rocket 4.2 18:25:40 10° W 18:30:19 25° NW 18:35:01 10° NNE
CSL-04 Debris 4.3 18:28:30 25° SE 18:31:22 48° ENE 18:36:35 10° N
H-2A R/B 2.5 18:28:42 10° S 18:32:57 77° WSW 18:37:05 10° NNW
NOSS 2-3 (E) 4.0 18:29:10 10° SW 18:33:15 63° NW 18:36:32 20° NE
Cosmos 1892 2.7 18:30:42 10° NNW 18:34:28 79° W 18:38:13 10° S
Cosmos 2228 3.0 18:32:36 10° S 18:36:55 59° E 18:41:16 10° NNE
Cosmos 1758 Rocket 3.5 18:32:54 10° N 18:37:15 87° W 18:41:36 10° S
Cosmos 2322 4.2 18:33:03 10° S 18:38:00 36° ESE 18:38:00 36° ESE
USA 229 DEB 3.5 18:32:02 10° SW 18:38:26 80° SE 18:43:37 19° NE
USA 229 3.5 18:32:09 10° SSW 18:38:32 79° SE 18:43:41 19° NE
Cosmos 2344 4.4 18:30:15 10° NW 18:39:18 80° SW 18:52:02 10° SSE
Cosmos 1408 2.7 18:37:32 10° NNW 18:41:07 72° W 18:43:38 18° S
CSL-04 Rocket 3.8 18:39:00 31° SE 18:41:25 54° ENE 18:46:50 10° N
Cosmos 1953 Rocket 3.9 18:39:21 10° N 18:43:15 46° NE 18:43:15 46° NE
Cosmos 1459 Rocket 4.1 18:41:48 10° SSE 18:47:42 49° E 18:53:33 10° NNE
Cosmos 220 Rocket 4.4 18:43:21 10° SSW 18:47:45 66° WNW 18:51:30 14° NNE
X-37B 3.4 18:48:07 10° WSW 18:50:11 15° SSW 18:51:10 13° S
SL-08 RB Rocket 4.4 18:45:55 10° S 18:50:24 56° W 18:54:59 10° NNW
H-2A R/B 4.1 18:46:50 10° SSW 18:51:31 30° W 18:56:17 10° NNW
HJ-1C 3.8 18:52:28 60° W 18:52:28 60° W 18:55:42 10° NNW
Cosmos 2100 Rocket 4.0 18:47:20 10° S 18:53:31 59° E 18:59:46 10° NNE
Meteor 2-10 Rocket 4.0 18:48:07 10° SSW 18:53:36 63° WNW 18:58:52 10° N
ATLAS 3B R/B 4.3 18:48:32 10° WNW 18:54:04 26° NNW 18:58:46 14° NE
Cosmos 1844 Rocket 3.2 18:48:36 10° NW 18:54:04 56° WSW 18:59:29 10° S
Tiangong 3.8 18:59:05 10° SW 19:00:17 14° SSW 19:00:17 14° SSW
NOSS 3-1 (A) 3.4 18:55:31 10° SW 19:00:56 76° NW 19:04:32 27° NE
DMSP B5D2-2 4.0 18:57:15 10° NNE 19:02:33 89° ESE 19:07:46 10° SSW
Cosmos 2058 4.4 18:59:39 10° N 19:01:39 26° N 19:01:39 26° N
Cosmos 2173 Rocket 3.9 18:57:51 10° S 19:03:59 66° E 19:10:15 10° NNE
Cosmos 1802 Rocket 4.1 18:59:20 10° SSE 19:05:58 51° ENE 19:11:14 10° NNE
H-2A R/B 2.7 19:07:49 43° SSW 19:07:49 43° SSW 19:10:42 10° SSW
BREEZE-M DEB (TANK) 3.9 19:02:21 10° WNW 19:06:16 37° SW 19:06:16 37° SW
YAOGAN 1 3.7 19:02:43 10° S 19:06:50 43° W 19:10:59 10° NNW
IRS-P2 Rocket 4.4 19:06:16 46° SSE 19:07:52 88° ENE 19:13:07 10° NNW
CENTAUR R/B 3.8 19:03:53 10° NW 19:11:00 39° NNE 19:12:59 35° ENE
Orbus 7S? 4.5 19:04:14 10° WNW 19:11:54 50° SW 19:12:53 42° SSW
Lacrosse 4 Rocket 4.3 19:12:20 10° WNW 19:15:01 16° WSW 19:17:43 10° SW
Cosmos 1825 3.3 19:13:31 10° NNW 19:16:20 41° NW 19:16:20 41° NW
Cosmos 44 4.0 19:12:08 10° SW 19:17:29 59° NW 19:19:21 38° NNE
NOSS 3-2 (A) 4.4 19:12:02 10° NW 19:18:48 44° NNE 19:19:55 41° NE
Cosmos 1606 Rocket 4.5 19:14:36 10° SSW 19:22:48 15° N 19:23:32 10° N
Cosmos 1140 Rocket 3.8 19:14:40 10° NNW 19:19:49 62° WSW 19:21:15 44° SSW
ATLAS 5 CENTAUR R/B 3.9 19:17:34 10° WNW 19:20:30 17° NNW 19:21:54 15° N
COSMOS 2428 4.4 19:15:12 10° S 19:16:52 20° S 19:16:52 20° S
Cosmos 2278 Rocket 2.8 19:16:00 10° NNW 19:20:28 43° NNE 19:20:28 43° NNE
Cosmos 407 Rocket 4.0 19:16:38 10° NNW 19:21:53 58° WSW 19:23:45 37° SSW
ATLAS 5 CENTAUR R/B 4.4 19:05:45 10° W 19:23:02 38° NNW 19:26:02 25° NNE
NOSS 3-1 (C) 4.4 19:19:54 10° WSW 19:25:09 41° NNW 19:28:48 22° NNE
Cosmos 2333 4.1 19:21:19 10° SSW 19:26:58 83° WNW 19:27:51 65° NNE
SL-16 R/B 4.0 19:24:53 10° WSW 19:29:45 29° NW 19:34:39 10° NNE
Cosmos 676 Rocket 4.4 19:26:17 10° NNW 19:30:25 56° N 19:30:25 56° N
Tsikada Rocket 4.4 19:26:05 10° N 19:30:42 48° NNE 19:30:42 48° NNE
Cosmos 1954 Rocket 4.3 19:28:57 10° NNW 19:33:11 59° NNW 19:33:11 59° NNW
Cosmos 2322 Rocket 3.9 19:36:14 10° WSW 19:41:06 30° NW 19:46:01 10° NNE
CZ-4 R/B 4.1 19:39:18 10° SW 19:42:10 18° W 19:45:06 10° NW
Cosmos 2219 Rocket 3.2 19:39:58 10° SSW 19:43:11 36° SW 19:43:11 36° SW
Cosmos 2360 Rocket 3.5 19:44:31 10° WSW 19:49:46 38° NW 19:53:15 19° N
Cosmos 2333 Rocket 2.9 19:54:40 10° SW 19:59:19 50° W 19:59:19 50° W
USA 215 3.9 20:11:24 44° N 20:11:36 45° N 20:17:44 10° WNW
Cosmos 1943 Rocket 4.2 20:08:41 10° NNW 20:10:39 20° N 20:10:39 20° N
ATLAS 3B R/B 4.3 20:41:20 10° NW 20:46:00 26° N 20:46:00 26° N
CENTAUR R/B 3.7 20:54:37 10° NW 21:00:09 51° NW 21:00:09 51° NW
Cosmos 2278 Rocket 4.5 21:00:24 10° NW 21:02:19 20° WNW 21:02:19 20° WNW
